Cleveland, OH

3:51 AM EST on November 25, 2017 (GMT -0500)
Cleveland-Hopkins International

Weather History for KCLE - March, 2014

Change the Weather History Date:

Monday, March 10, 2014

  Actual Average Record
Temperature  
Mean Temperature 48 °F 36 °F  
Max Temperature 57 °F 44 °F 72 °F (1973)
Min Temperature 38 °F 28 °F 5 °F (1984)
Degree Days  
Heating Degree Days 17 29  
Month to date heating degree days 383 301  
Since 1 July heating degree days 5064 4518  
Cooling Degree Days 0 0  
Month to date cooling degree days 0 0  
Year to date cooling degree days 0 0  
Moisture  
Dew Point 33 °F    
Average Humidity 59    
Maximum Humidity 67    
Minimum Humidity 51    
Precipitation  
Precipitation T in 0.08 in 1.03 in (2009)
Month to date precipitation 0.25 0.85  
Year to date precipitation 5.28 5.91  
Snow  
Snow 0.00 in 0.50 in - ()
Month to date snowfall 3.4 4.8  
Since 1 July snowfall 73.1 57.0  
Snow Depth 0.00 in    
Sea Level Pressure  
Sea Level Pressure 29.76 in    
Wind  
Wind Speed 14 mph (SW)    
Max Wind Speed 25 mph    
Max Gust Speed 33 mph    
Visibility 10 miles    
Events      
T = Trace of Precipitation, MM = Missing Value Source: NWS Daily Summary

Daily Weather History Graph

Daily Weather History Graph

Search for Another Location

Airport or City:

Trip Planner

Search our weather history database for the weather conditions in past years. The results will help you decide how hot, cold, wet, or windy it might be!

Date:

Astronomy

Mar. 10, 2014 Rise Set
Actual Time 7:47 AM EDT 7:28 PM EDT
Civil Twilight 7:19 AM EDT 7:56 PM EDT
Nautical Twilight 6:47 AM EDT 8:28 PM EDT
Astronomical Twilight 6:15 AM EDT 9:00 PM EDT
Moon 2:08 PM EDT (3/10) 4:01 AM EDT (3/10)
Length of Visible Light 12h 36m
Length of Day
11h 40m
Waxing Gibbous, 70% of the Moon is Illuminated
Mar 10
Waxing Gibbous
Mar 16
Full
Mar 23
Last Quarter
Mar 30
New
Apr 7
First Quarter

Hourly Weather History & Observations

Time (EDT) Temp. Windchill Dew Point Humidity Pressure Visibility Wind Dir Wind Speed Gust Speed Precip Events Conditions
12:51 AM 37.9 °F 29.2 °F 24.1 °F 57% 29.90 in 10.0 mi SSW 15.0 mph 24.2 mph N/A   Overcast
1:51 AM 39.9 °F 31.8 °F 24.1 °F 53% 29.88 in 10.0 mi SSW 15.0 mph - N/A   Overcast
2:51 AM 39.9 °F 32.1 °F 25.0 °F 55% 29.89 in 10.0 mi SW 13.8 mph - N/A   Overcast
3:51 AM 39.9 °F 32.5 °F 26.1 °F 58% 29.86 in 10.0 mi SW 12.7 mph - N/A   Overcast
4:51 AM 39.9 °F 33.4 °F 26.1 °F 58% 29.84 in 10.0 mi SW 10.4 mph 20.7 mph N/A   Overcast
5:51 AM 41.0 °F 34.3 °F 27.0 °F 57% 29.82 in 10.0 mi SW 11.5 mph - N/A   Overcast
6:51 AM 41.0 °F 34.7 °F 28.0 °F 60% 29.82 in 10.0 mi SW 10.4 mph - N/A   Overcast
7:51 AM 41.0 °F 35.8 °F 28.9 °F 62% 29.82 in 10.0 mi SW 8.1 mph - 0.00 in   Overcast
8:51 AM 43.0 °F 37.2 °F 30.0 °F 60% 29.81 in 10.0 mi SSW 10.4 mph - N/A   Mostly Cloudy
9:51 AM 43.0 °F 37.2 °F 32.0 °F 65% 29.80 in 10.0 mi SW 10.4 mph - N/A   Overcast
10:51 AM 44.1 °F 37.1 °F 33.1 °F 65% 29.79 in 10.0 mi WSW 15.0 mph - N/A   Overcast
11:51 AM 46.9 °F - 34.0 °F 61% 29.78 in 10.0 mi SW 17.3 mph - N/A   Overcast
12:51 PM 51.1 °F - 36.0 °F 56% 29.77 in 10.0 mi WSW 18.4 mph - N/A   Mostly Cloudy
1:51 PM 51.1 °F - 37.0 °F 59% 29.74 in 10.0 mi SSW 19.6 mph 24.2 mph N/A   Mostly Cloudy
2:51 PM 53.1 °F - 37.9 °F 57% 29.69 in 10.0 mi SSW 17.3 mph 29.9 mph N/A   Scattered Clouds
3:51 PM 55.0 °F - 37.0 °F 51% 29.65 in 10.0 mi SSW 25.3 mph 33.4 mph N/A   Partly Cloudy
4:51 PM 55.9 °F - 37.9 °F 51% 29.64 in 10.0 mi SW 19.6 mph 27.6 mph N/A   Mostly Cloudy
5:51 PM 55.9 °F - 37.9 °F 51% 29.63 in 10.0 mi SW 16.1 mph 27.6 mph N/A   Mostly Cloudy
6:51 PM 55.0 °F - 37.9 °F 53% 29.64 in 10.0 mi SW 15.0 mph - N/A   Mostly Cloudy
7:51 PM 53.1 °F - 37.9 °F 57% 29.65 in 10.0 mi SW 13.8 mph - N/A   Mostly Cloudy
8:51 PM 51.1 °F - 37.9 °F 61% 29.68 in 10.0 mi SW 11.5 mph - N/A   Mostly Cloudy
9:51 PM 48.9 °F - 37.9 °F 66% 29.69 in 10.0 mi SW 11.5 mph - N/A   Mostly Cloudy
10:51 PM 48.9 °F - 37.9 °F 66% 29.70 in 10.0 mi WSW 12.7 mph - N/A   Mostly Cloudy
11:51 PM 48.0 °F - 37.9 °F 68% 29.70 in 10.0 mi WSW 12.7 mph - N/A   Mostly Cloudy